�������l�o���
Date,Time,MP-1(��Sv/h),MP-2(��Sv/h),MP-3(��Sv/h),MP-4(��Sv/h),MP-5(��Sv/h),MP-6(��Sv/h),MP-7(��Sv/h),MP-8(��Sv/h),����,����(m/s),���J
2017/11/10,00:00,0.913,1.469,0.930,1.742,1.194,0.500,0.914,0.849,��,5.2,��
2017/11/10,00:10,0.914,1.472,0.928,1.746,1.193,0.500,0.913,0.850,���쐼,5.5,��
2017/11/10,00:20,0.913,1.472,0.928,1.742,1.192,0.501,0.913,0.850,��,4.5,��
2017/11/10,00:30,0.913,1.472,0.929,1.745,1.193,0.500,0.912,0.850,��,5.0,��
2017/11/10,00:40,0.913,1.472,0.930,1.744,1.193,0.499,0.914,0.850,��,4.9,��
2017/11/10,00:50,0.913,1.470,0.928,1.743,1.193,0.500,0.912,0.849,��,4.7,��
2017/11/10,01:00,0.912,1.471,0.926,1.740,1.195,0.499,0.913,0.847,��,4.6,��
2017/11/10,01:10,0.911,1.471,0.931,1.744,1.195,0.500,0.913,0.850,��,4.7,��
2017/11/10,01:20,0.914,1.469,0.927,1.741,1.192,0.501,0.913,0.849,��,4.3,��
2017/11/10,01:30,0.913,1.471,0.928,1.741,1.194,0.500,0.913,0.849,��,3.5,��
2017/11/10,01:40,0.914,1.471,0.928,1.737,1.194,0.501,0.915,0.849,��,4.1,��
2017/11/10,01:50,0.913,1.472,0.931,1.740,1.194,0.499,0.914,0.849,��,5.0,��
2017/11/10,02:00,0.913,1.472,0.928,1.742,1.195,0.500,0.912,0.850,��,4.3,��
2017/11/10,02:10,0.913,1.471,0.927,1.739,1.193,0.501,0.913,0.850,���k��,4.6,��
2017/11/10,02:20,0.914,1.469,0.930,1.739,1.192,0.500,0.912,0.850,���k��,4.8,��
2017/11/10,02:30,0.914,1.471,0.928,1.742,1.192,0.500,0.914,0.848,���k��,5.3,��
2017/11/10,02:40,0.914,1.471,0.928,1.741,1.192,0.501,0.912,0.848,���k��,4.6,��
2017/11/10,02:50,0.911,1.468,0.929,1.740,1.191,0.501,0.915,0.848,��,3.6,��
2017/11/10,03:00,0.913,1.466,0.929,1.739,1.193,0.500,0.914,0.850,���k��,3.3,��
2017/11/10,03:10,0.912,1.467,0.929,1.740,1.195,0.499,0.913,0.851,�k��,2.9,��
2017/11/10,03:20,0.912,1.472,0.928,1.741,1.194,0.500,0.913,0.849,�k��,3.1,��
2017/11/10,03:30,0.913,1.468,0.928,1.739,1.194,0.500,0.913,0.849,�k��,2.8,��
2017/11/10,03:40,0.912,1.471,0.925,1.742,1.192,0.499,0.911,0.848,�k��,2.9,��
2017/11/10,03:50,0.913,1.470,0.928,1.741,1.194,0.498,0.912,0.850,���k��,3.8,��
2017/11/10,04:00,0.912,1.468,0.927,1.741,1.194,0.500,0.913,0.849,���k��,4.5,��
2017/11/10,04:10,0.912,1.471,0.929,1.741,1.192,0.498,0.913,0.849,���k��,4.6,��
2017/11/10,04:20,0.912,1.468,0.927,1.739,1.194,0.499,0.912,0.849,���k��,4.0,��
2017/11/10,04:30,0.911,1.469,0.927,1.741,1.191,0.497,0.915,0.847,��,5.5,��
2017/11/10,04:40,0.913,1.469,0.925,1.738,1.191,0.498,0.912,0.847,���k��,5.9,��
2017/11/10,04:50,0.913,1.468,0.927,1.744,1.195,0.499,0.913,0.849,��,4.9,��
2017/11/10,05:00,0.913,1.470,0.928,1.741,1.193,0.500,0.911,0.849,��,4.7,��
2017/11/10,05:10,0.914,1.472,0.927,1.740,1.196,0.497,0.910,0.850,��,4.3,��
2017/11/10,05:20,0.911,1.469,0.926,1.740,1.192,0.498,0.911,0.848,��,3.6,��
2017/11/10,05:30,0.911,1.468,0.928,1.742,1.190,0.498,0.911,0.848,��,4.0,��
2017/11/10,05:40,0.909,1.468,0.925,1.742,1.192,0.500,0.912,0.849,���k��,5.2,��
2017/11/10,05:50,0.909,1.470,0.927,1.740,1.191,0.497,0.913,0.849,���k��,7.4,��
2017/11/10,06:00,0.910,1.468,0.926,1.741,1.192,0.499,0.913,0.848,���k��,8.2,��
2017/11/10,06:10,0.911,1.467,0.930,1.740,1.192,0.499,0.912,0.849,���k��,7.0,��
2017/11/10,06:20,0.911,1.470,0.926,1.738,1.193,0.499,0.910,0.847,��,6.3,��
2017/11/10,06:30,0.913,1.470,0.930,1.740,1.193,0.499,0.912,0.848,��,6.1,��
2017/11/10,06:40,0.912,1.467,0.929,1.737,1.193,0.498,0.912,0.848,���k��,6.3,��
2017/11/10,06:50,0.912,1.469,0.926,1.741,1.194,0.499,0.910,0.848,���k��,5.4,��
2017/11/10,07:00,0.911,1.469,0.927,1.739,1.190,0.499,0.913,0.849,��,5.0,��
2017/11/10,07:10,0.912,1.469,0.929,1.740,1.191,0.500,0.913,0.851,��,4.8,��
2017/11/10,07:20,0.913,1.467,0.927,1.740,1.192,0.499,0.913,0.850,���k��,5.2,��
2017/11/10,07:30,0.912,1.468,0.928,1.739,1.190,0.499,0.914,0.849,���k��,4.6,��
2017/11/10,07:40,0.910,1.471,0.927,1.740,1.189,0.500,0.913,0.849,��,3.0,��
2017/11/10,07:50,0.913,1.472,0.927,1.741,1.192,0.500,0.912,0.851,���k��,4.1,��
2017/11/10,08:00,0.914,1.472,0.930,1.740,1.194,0.498,0.914,0.847,���k��,4.2,��
2017/11/10,08:10,0.913,1.471,0.929,1.741,1.191,0.498,0.914,0.850,���k��,4.2,��
2017/11/10,08:20,0.916,1.472,0.931,1.741,1.194,0.499,0.913,0.849,�k��,3.5,��
2017/11/10,08:30,0.915,1.471,0.929,1.742,1.193,0.499,0.916,0.850,�k��,2.8,��
2017/11/10,08:40,0.913,1.471,0.930,1.742,1.193,0.500,0.916,0.852,�k�k��,2.3,��
2017/11/10,08:50,0.913,1.470,0.930,1.743,1.193,0.500,0.912,0.849,�k�k��,2.9,��
2017/11/10,09:00,0.915,1.467,0.928,1.741,1.193,0.499,0.914,0.850,�k��,2.3,��
2017/11/10,09:10,0.915,1.468,0.929,1.744,1.192,0.501,0.914,0.848,���k��,2.2,��
2017/11/10,09:20,0.916,1.466,0.932,1.746,1.195,0.500,0.914,0.849,��,0.9,��
2017/11/10,09:30,0.917,1.468,0.930,1.742,1.193,0.500,0.913,0.850,�k�k��,1.2,��
2017/11/10,09:40,0.916,1.468,0.931,1.747,1.193,0.501,0.913,0.850,�k��,1.5,��
2017/11/10,09:50,0.916,1.468,0.930,1.745,1.196,0.501,0.913,0.850,���k��,2.2,��
2017/11/10,10:00,0.917,1.466,0.930,1.746,1.196,0.501,0.912,0.851,�k�k��,2.0,��
2017/11/10,10:10,0.917,1.466,0.929,1.747,1.194,0.500,0.913,0.851,��,1.5,��
2017/11/10,10:20,0.915,1.465,0.933,1.747,1.195,0.501,0.915,0.850,���쓌,2.6,��
2017/11/10,10:30,0.915,1.466,0.934,1.747,1.196,0.499,0.912,0.851,���k��,2.3,��
2017/11/10,10:40,0.916,1.468,0.931,1.744,1.196,0.498,0.912,0.852,���쓌,3.4,��
2017/11/10,10:50,0.915,1.470,0.930,1.746,1.198,0.499,0.914,0.853,���쓌,2.6,��
2017/11/10,11:00,0.916,1.467,0.932,1.748,1.194,0.499,0.914,0.851,�쓌,3.8,��
2017/11/10,11:10,0.917,1.473,0.930,1.748,1.196,0.500,0.914,0.852,�쓌,4.1,��
2017/11/10,11:20,0.915,1.470,0.931,1.746,1.196,0.498,0.914,0.851,�쓌,3.9,��
2017/11/10,11:30,0.917,1.470,0.929,1.747,1.196,0.498,0.912,0.852,�쓌,4.9,��
2017/11/10,11:40,0.916,1.472,0.930,1.748,1.196,0.499,0.912,0.850,�쓌,4.7,��
2017/11/10,11:50,0.915,1.468,0.931,1.748,1.196,0.501,0.913,0.853,�쓌,6.3,��
2017/11/10,12:00,0.916,1.469,0.931,1.747,1.197,0.502,0.915,0.852,��쓌,6.2,��
2017/11/10,12:10,0.914,1.473,0.931,1.748,1.198,0.503,0.911,0.852,�쓌,6.1,��
2017/11/10,12:20,0.915,1.474,0.929,1.744,1.198,0.502,0.911,0.852,��쓌,7.3,��
2017/11/10,12:30,0.915,1.474,0.932,1.751,1.194,0.504,0.912,0.853,��쓌,8.5,��
2017/11/10,12:40,0.918,1.476,0.933,1.747,1.198,0.504,0.911,0.851,�쓌,8.2,��
2017/11/10,12:50,0.916,1.474,0.933,1.749,1.199,0.503,0.912,0.851,��쓌,8.5,��
2017/11/10,13:00,0.917,1.474,0.933,1.748,1.200,0.503,0.914,0.850,��쓌,9.4,��
2017/11/10,13:10,0.918,1.474,0.931,1.747,1.197,0.504,0.915,0.848,��쓌,11.4,��
2017/11/10,13:20,0.916,1.475,0.934,1.750,1.196,0.504,0.914,0.848,��쓌,11.3,��
2017/11/10,13:30,0.918,1.472,0.933,1.748,1.198,0.503,0.914,0.848,��쓌,11.6,��
2017/11/10,13:40,0.917,1.473,0.932,1.747,1.196,0.503,0.914,0.849,��쓌,10.9,��
2017/11/10,13:50,0.918,1.474,0.933,1.748,1.199,0.504,0.915,0.850,��쓌,10.5,��
2017/11/10,14:00,0.916,1.474,0.933,1.753,1.199,0.503,0.916,0.848,��쓌,10.5,��
2017/11/10,14:10,0.917,1.475,0.933,1.751,1.199,0.505,0.915,0.850,��쓌,10.3,��
2017/11/10,14:20,0.917,1.473,0.934,1.753,1.202,0.504,0.916,0.848,��쓌,11.6,��
2017/11/10,14:30,0.918,1.475,0.933,1.750,1.200,0.504,0.915,0.848,��쓌,10.5,��
2017/11/10,14:40,0.916,1.477,0.933,1.752,1.199,0.507,0.915,0.849,��,10.2,��
2017/11/10,14:50,0.918,1.475,0.933,1.748,1.198,0.505,0.914,0.849,��쓌,10.2,��
2017/11/10,15:00,0.918,1.476,0.934,1.752,1.202,0.505,0.917,0.849,��쓌,11.8,��
2017/11/10,15:10,0.918,1.478,0.937,1.748,1.200,0.506,0.914,0.851,��,9.5,��
2017/11/10,15:20,0.919,1.481,0.935,1.752,1.197,0.507,0.915,0.851,��,8.4,��
2017/11/10,15:30,0.919,1.479,0.935,1.751,1.197,0.506,0.916,0.851,��,9.1,��
2017/11/10,15:40,0.920,1.478,0.935,1.751,1.198,0.504,0.914,0.853,��,9.6,��
2017/11/10,15:50,0.921,1.480,0.937,1.752,1.199,0.505,0.915,0.852,��,10.0,��
2017/11/10,16:00,0.919,1.481,0.936,1.749,1.200,0.505,0.915,0.852,��쓌,8.8,��
2017/11/10,16:10,0.921,1.481,0.935,1.751,1.199,0.504,0.916,0.853,��,8.2,��
2017/11/10,16:20,0.922,1.485,0.935,1.750,1.198,0.505,0.916,0.853,��,7.9,��
2017/11/10,16:30,0.919,1.484,0.935,1.751,1.198,0.503,0.916,0.853,��,6.3,��
2017/11/10,16:40,0.922,1.482,0.935,1.753,1.200,0.505,0.917,0.853,��쓌,7.8,��
2017/11/10,16:50,0.921,1.482,0.936,1.750,1.200,0.506,0.918,0.852,��,8.0,��
2017/11/10,17:00,0.921,1.481,0.935,1.747,1.202,0.505,0.916,0.853,��,8.6,��
2017/11/10,17:10,0.921,1.484,0.936,1.749,1.203,0.506,0.916,0.852,��,9.3,��
2017/11/10,17:20,0.922,1.481,0.935,1.750,1.201,0.506,0.917,0.854,��,9.0,��
2017/11/10,17:30,0.924,1.485,0.936,1.748,1.205,0.505,0.919,0.853,��,9.5,��
2017/11/10,17:40,0.923,1.482,0.935,1.749,1.205,0.506,0.916,0.853,��,10.7,��
2017/11/10,17:50,0.923,1.483,0.937,1.748,1.203,0.505,0.915,0.851,��,10.4,��
2017/11/10,18:00,0.924,1.483,0.936,1.749,1.205,0.506,0.919,0.852,��,8.4,��
2017/11/10,18:10,0.921,1.483,0.938,1.748,1.204,0.505,0.917,0.852,��,8.5,��
2017/11/10,18:20,0.923,1.481,0.937,1.750,1.203,0.507,0.917,0.851,��,8.1,��
2017/11/10,18:30,0.926,1.482,0.935,1.753,1.203,0.506,0.918,0.853,��,6.2,��
2017/11/10,18:40,0.924,1.486,0.934,1.747,1.205,0.506,0.918,0.852,��,7.7,��
2017/11/10,18:50,0.922,1.482,0.935,1.749,1.204,0.506,0.916,0.852,��,6.5,��
2017/11/10,19:00,0.921,1.483,0.937,1.747,1.203,0.506,0.918,0.851,��,9.7,��
2017/11/10,19:10,0.923,1.483,0.937,1.750,1.202,0.504,0.919,0.849,��,10.4,��
2017/11/10,19:20,0.922,1.480,0.936,1.750,1.203,0.506,0.918,0.852,��,9.9,��
2017/11/10,19:30,0.923,1.483,0.934,1.750,1.204,0.505,0.918,0.851,��,10.0,��
2017/11/10,19:40,0.923,1.481,0.938,1.751,1.204,0.507,0.918,0.851,��,11.1,��
2017/11/10,19:50,0.924,1.482,0.938,1.748,1.202,0.505,0.918,0.852,��,10.8,��
2017/11/10,20:00,0.921,1.482,0.938,1.750,1.204,0.506,0.917,0.855,��,10.0,��
2017/11/10,20:10,0.923,1.483,0.937,1.750,1.205,0.506,0.918,0.852,��,9.3,��
2017/11/10,20:20,0.923,1.484,0.936,1.751,1.206,0.506,0.919,0.853,��,8.6,��
2017/11/10,20:30,0.920,1.481,0.938,1.750,1.206,0.507,0.919,0.854,��,8.7,��
2017/11/10,20:40,0.923,1.481,0.939,1.750,1.202,0.508,0.918,0.853,��,8.9,��
2017/11/10,20:50,0.922,1.483,0.939,1.751,1.202,0.506,0.920,0.853,��,9.3,��
2017/11/10,21:00,0.921,1.483,0.936,1.749,1.205,0.507,0.918,0.851,��,11.0,��
2017/11/10,21:10,0.920,1.483,0.938,1.750,1.206,0.508,0.919,0.852,��,10.9,��
2017/11/10,21:20,0.919,1.483,0.937,1.753,1.204,0.508,0.919,0.854,��,10.6,��
2017/11/10,21:30,0.921,1.482,0.937,1.751,1.204,0.509,0.919,0.853,��,9.8,��
2017/11/10,21:40,0.922,1.484,0.939,1.749,1.205,0.509,0.920,0.852,��,10.6,��
2017/11/10,21:50,0.924,1.481,0.938,1.749,1.206,0.509,0.921,0.852,��쐼,10.7,��
2017/11/10,22:00,0.923,1.484,0.937,1.752,1.207,0.508,0.920,0.853,��,11.3,��
2017/11/10,22:10,0.925,1.483,0.940,1.749,1.205,0.508,0.920,0.854,��쐼,11.0,��
2017/11/10,22:20,0.924,1.483,0.941,1.753,1.207,0.508,0.921,0.851,��쐼,10.6,��
2017/11/10,22:30,0.923,1.482,0.936,1.750,1.206,0.508,0.918,0.853,��쐼,10.8,��
2017/11/10,22:40,0.924,1.482,0.939,1.750,1.203,0.509,0.920,0.853,��쐼,11.7,��
2017/11/10,22:50,0.923,1.483,0.940,1.753,1.205,0.506,0.920,0.855,��,11.4,��
2017/11/10,23:00,0.924,1.484,0.940,1.752,1.204,0.508,0.919,0.854,��,11.6,��
2017/11/10,23:10,0.924,1.484,0.937,1.751,1.206,0.510,0.919,0.854,��,10.9,��
2017/11/10,23:20,0.925,1.482,0.940,1.750,1.205,0.511,0.919,0.854,��쐼,11.1,��
2017/11/10,23:30,0.926,1.484,0.938,1.750,1.205,0.509,0.919,0.853,��,11.0,��
2017/11/10,23:40,0.923,1.485,0.940,1.751,1.204,0.508,0.920,0.855,��,8.8,��
2017/11/10,23:50,0.924,1.483,0.940,1.753,1.206,0.510,0.919,0.854,��,8.8,��
